UAE213 OMDB-KMIA

Flight info

Callsign UAE213
Flight time N/A
Altitude 28000
Route ANVIX R401 GIDIS G783 VAVIM DCT ESROM M318 GOLGU M550 RIBOT DCT MIGMA DCT SITUK M321 NAGUB/N0510F300 M321 KSA T503 OVANO L768 FIRAS R655 KTN/N0477F260 R655 LEBOR/N0499F300 UR655 BALMA L620 VESAR UB545 MUT UL619 OSVEL/N0494F320 UQ23 OSDAN UQ26 TUDBU DCT NAVOD DCT MAVIR DCT ARSIN DCT PEROL DCT RENKA DCT INBED DCT BOMBI DCT ADKUV DCT LENDO DCT SOGRI DCT DENUT L610 KOPUL DCT ENHAQ/N0485F340 DCT GAJIT DCT BAPHU DCT LESLU/M084F340 DCT MAPAG DCT ELSOX DCT DINIM/M084F350 DCT 51N020W 50N030W 48N040W 46N050W DCT SUPRY/M084F360 DCT LOMPI M202 ITCHE/M084F380 M202 ONGOT DCT PADRK M203 SNAGY/N0486F380 BNFSH3
Aircraft B77W/H-SDE1E2E3FGHIJ2J3J4J5M1RWXY/LB1D1

Departure

Time 2026-05-07 22:59
Airport Dubai International Airport (OMDB)

Arrival

Time N/A
Airport Miami International Airport (KMIA)
Time Latitude Longitude Altitude Speed Heading
2026-05-07 22:34 25.24592 55.36430 26 ft 0 kts 31°
2026-05-07 22:45 25.24585 55.36426 30 ft 4 kts 31°
2026-05-07 22:46 25.24562 55.36410 26 ft 4 kts 31°
2026-05-07 22:46 25.24543 55.36398 31 ft 4 kts 40°
2026-05-07 22:46 25.24530 55.36376 26 ft 4 kts 92°
2026-05-07 22:46 25.24537 55.36348 29 ft 4 kts 120°
2026-05-07 22:47 25.24541 55.36342 26 ft 0 kts 121°
2026-05-07 22:51 25.24535 55.36352 26 ft 5 kts 121°
2026-05-07 22:51 25.24517 55.36385 30 ft 5 kts 121°
2026-05-07 22:51 25.24487 55.36440 28 ft 10 kts 121°
2026-05-07 22:52 25.24457 55.36506 28 ft 10 kts 107°
2026-05-07 22:52 25.24453 55.36581 26 ft 10 kts 82°
2026-05-07 22:52 25.24482 55.36650 31 ft 11 kts 52°
2026-05-07 22:52 25.24550 55.36708 31 ft 14 kts 31°
2026-05-07 22:53 25.24632 55.36763 28 ft 14 kts 31°
2026-05-07 22:53 25.24714 55.36818 26 ft 14 kts 31°
2026-05-07 22:53 25.24794 55.36877 31 ft 14 kts 48°
2026-05-07 22:53 25.24788 55.36975 26 ft 14 kts 121°
2026-05-07 22:54 25.24735 55.37064 27 ft 14 kts 122°
2026-05-07 22:54 25.24683 55.37154 26 ft 14 kts 121°
2026-05-07 22:54 25.24633 55.37244 30 ft 14 kts 121°
2026-05-07 22:54 25.24583 55.37335 31 ft 14 kts 122°
2026-05-07 22:55 25.24532 55.37425 28 ft 14 kts 122°
2026-05-07 22:55 25.24480 55.37515 30 ft 14 kts 122°
2026-05-07 22:55 25.24430 55.37605 29 ft 14 kts 121°
2026-05-07 22:55 25.24379 55.37696 29 ft 14 kts 121°
2026-05-07 22:56 25.24329 55.37786 32 ft 14 kts 121°
2026-05-07 22:56 25.24278 55.37876 29 ft 14 kts 122°
2026-05-07 22:56 25.24227 55.37966 26 ft 14 kts 122°
2026-05-07 22:56 25.24222 55.38064 27 ft 14 kts 51°
2026-05-07 22:57 25.24303 55.38118 31 ft 14 kts 30°
2026-05-07 22:57 25.24384 55.38174 30 ft 14 kts 31°
2026-05-07 22:57 25.24467 55.38229 27 ft 14 kts 31°
2026-05-07 22:57 25.24552 55.38287 27 ft 14 kts 31°
2026-05-07 22:58 25.24625 55.38329 26 ft 7 kts
2026-05-07 22:58 25.24660 55.38286 27 ft 13 kts 303°
2026-05-07 22:58 25.24765 55.38100 31 ft 57 kts 302°
2026-05-07 22:58 25.25104 55.37483 32 ft 129 kts 301°
2026-05-07 22:59 25.25705 55.36405 31 ft 195 kts 302°
2026-05-07 22:59 25.26470 55.35060 410 ft 207 kts 303°
2026-05-07 22:59 25.27234 55.33784 1287 ft 194 kts 301°
2026-05-07 22:59 25.27925 55.32513 2070 ft 187 kts 298°
2026-05-07 23:00 25.28577 55.31277 2305 ft 192 kts 299°
2026-05-07 23:00 25.29194 55.29972 2487 ft 191 kts 281°
2026-05-07 23:00 25.29123 55.28527 2550 ft 193 kts 249°
2026-05-07 23:00 25.28553 55.27190 2711 ft 193 kts 247°
2026-05-07 23:01 25.27989 55.25839 2917 ft 195 kts 247°
2026-05-07 23:01 25.27423 55.24479 3140 ft 195 kts 246°
2026-05-07 23:01 25.26849 55.23118 3341 ft 196 kts 246°
2026-05-07 23:01 25.26271 55.21752 3566 ft 196 kts 246°
2026-05-07 23:02 25.25680 55.20357 3636 ft 206 kts 246°
2026-05-07 23:02 25.25060 55.18887 3743 ft 217 kts 246°
2026-05-07 23:02 25.24266 55.17433 3851 ft 227 kts 223°
2026-05-07 23:02 25.22826 55.16671 3955 ft 242 kts 187°
2026-05-07 23:03 25.21108 55.16745 4151 ft 251 kts 178°
2026-05-07 23:03 25.19374 55.17043 4473 ft 256 kts 160°
2026-05-07 23:03 25.17937 55.18230 4676 ft 269 kts 125°
2026-05-07 23:03 25.17015 55.20071 4821 ft 279 kts 118°
2026-05-07 23:04 25.16120 55.22004 5119 ft 286 kts 119°
2026-05-07 23:04 25.15194 55.23955 5586 ft 288 kts 119°
2026-05-07 23:04 25.14259 55.25911 6097 ft 288 kts 119°
2026-05-07 23:04 25.13320 55.27878 6555 ft 291 kts 119°
2026-05-07 23:05 25.12368 55.29864 6982 ft 294 kts 119°
2026-05-07 23:05 25.11408 55.31854 7399 ft 295 kts 119°
2026-05-07 23:05 25.10455 55.33871 7851 ft 297 kts 116°
2026-05-07 23:05 25.09592 55.35946 8329 ft 298 kts 115°
2026-05-07 23:06 25.08748 55.38039 8790 ft 300 kts 115°
2026-05-07 23:06 25.07892 55.40143 9230 ft 302 kts 115°
2026-05-07 23:06 25.07028 55.42263 9637 ft 306 kts 114°
2026-05-07 23:06 25.06184 55.44449 9954 ft 314 kts 113°
2026-05-07 23:07 25.05334 55.46686 10285 ft 321 kts 113°
2026-05-07 23:07 25.04444 55.49016 10383 ft 338 kts 113°
2026-05-07 23:07 25.03507 55.51457 10522 ft 353 kts 114°
2026-05-07 23:07 25.02524 55.54002 10654 ft 369 kts 114°
2026-05-07 23:08 25.01445 55.56633 10914 ft 380 kts 118°
2026-05-07 23:08 25.00109 55.59176 11339 ft 386 kts 122°
2026-05-07 23:08 24.98671 55.61684 11903 ft 387 kts 123°
2026-05-07 23:08 24.97264 55.64168 12571 ft 386 kts 122°
2026-05-07 23:09 24.95875 55.66696 13253 ft 385 kts 121°
2026-05-07 23:09 24.94488 55.69260 13845 ft 386 kts 121°
2026-05-07 23:09 24.93058 55.71726 14316 ft 389 kts 125°
2026-05-07 23:09 24.91454 55.74144 14717 ft 393 kts 127°
2026-05-07 23:10 24.89793 55.76557 15146 ft 397 kts 127°
2026-05-07 23:10 24.88130 55.78998 15591 ft 400 kts 126°
2026-05-07 23:10 24.86477 55.81468 16081 ft 401 kts 126°
2026-05-07 23:10 24.84823 55.83959 16564 ft 405 kts 126°
2026-05-07 23:11 24.83151 55.86471 16949 ft 409 kts 126°
2026-05-07 23:11 24.81448 55.88997 17354 ft 413 kts 126°
2026-05-07 23:11 24.79586 55.91391 17650 ft 415 kts 140°
2026-05-07 23:11 24.77084 55.93014 17928 ft 423 kts 159°
2026-05-07 23:12 24.74216 55.93765 18334 ft 427 kts 175°
2026-05-07 23:12 24.71238 55.93730 18761 ft 429 kts 182°
2026-05-07 23:12 24.68255 55.93553 19199 ft 430 kts 181°
2026-05-07 23:12 24.65263 55.93437 19610 ft 432 kts 181°
2026-05-07 23:13 24.62271 55.93176 19941 ft 434 kts 191°
2026-05-07 23:13 24.59388 55.92147 20196 ft 439 kts 205°
2026-05-07 23:13 24.56780 55.90389 20547 ft 442 kts 219°
2026-05-07 23:13 24.54484 55.88154 20902 ft 442 kts 221°
2026-05-07 23:14 24.52197 55.85878 21255 ft 445 kts 221°
2026-05-07 23:14 24.49887 55.83609 21635 ft 446 kts 221°
2026-05-07 23:14 24.47559 55.81347 22021 ft 447 kts 221°
2026-05-07 23:14 24.45215 55.79090 22406 ft 449 kts 221°
2026-05-07 23:15 24.42860 55.76830 22765 ft 450 kts 221°
2026-05-07 23:15 24.40499 55.74567 23118 ft 452 kts 221°
2026-05-07 23:15 24.38127 55.72295 23451 ft 454 kts 221°
2026-05-07 23:15 24.35748 55.70011 23732 ft 455 kts 221°
2026-05-07 23:16 24.33369 55.67713 24021 ft 456 kts 221°
2026-05-07 23:16 24.30984 55.65409 24287 ft 458 kts 221°
2026-05-07 23:16 24.28642 55.63043 24549 ft 459 kts 227°
2026-05-07 23:16 24.26646 55.60308 24771 ft 461 kts 236°
2026-05-07 23:17 24.25022 55.57271 25015 ft 463 kts 243°
2026-05-07 23:17 24.23813 55.54049 25273 ft 464 kts 251°
2026-05-07 23:17 24.22789 55.50692 25554 ft 465 kts 251°
2026-05-07 23:17 24.21773 55.47325 25819 ft 466 kts 251°
2026-05-07 23:18 24.20736 55.43905 26078 ft 467 kts 251°
2026-05-07 23:18 24.19717 55.40577 26335 ft 469 kts 251°
2026-05-07 23:18 24.18671 55.37192 26589 ft 470 kts 251°
2026-05-07 23:18 24.17617 55.33802 26828 ft 471 kts 251°
2026-05-07 23:19 24.16555 55.30404 27061 ft 472 kts 251°
2026-05-07 23:19 24.15487 55.27002 27311 ft 473 kts 251°
2026-05-07 23:19 24.14413 55.23591 27529 ft 474 kts 251°
2026-05-07 23:19 24.13338 55.20176 27732 ft 476 kts 251°
2026-05-07 23:20 24.12255 55.16736 27768 ft 478 kts 251°
2026-05-07 23:20 24.11169 55.13297 27821 ft 479 kts 251°
2026-05-07 23:20 24.10077 55.09841 27825 ft 482 kts 251°
2026-05-07 23:20 24.08977 55.06358 27829 ft 486 kts 251°
2026-05-07 23:21 24.07870 55.02851 27835 ft 489 kts 251°
2026-05-07 23:21 24.06757 54.99327 27831 ft 492 kts 250°
2026-05-07 23:21 24.05636 54.95781 27833 ft 494 kts 250°
2026-05-07 23:21 24.04509 54.92224 27819 ft 495 kts 250°
2026-05-07 23:22 24.03381 54.88670 27818 ft 496 kts 250°
2026-05-07 23:22 24.02248 54.85101 27808 ft 496 kts 250°
2026-05-07 23:22 24.01118 54.81542 27808 ft 496 kts 250°
2026-05-07 23:22 23.99986 54.77981 27806 ft 495 kts 250°
2026-05-07 23:23 23.98855 54.74425 27810 ft 495 kts 250°
2026-05-07 23:23 23.97722 54.70869 27811 ft 494 kts 250°
2026-05-07 23:23 23.96591 54.67322 27809 ft 494 kts 250°
2026-05-07 23:23 23.95460 54.63777 27809 ft 494 kts 250°
2026-05-07 23:24 23.94331 54.60244 27808 ft 493 kts 250°
2026-05-07 23:24 23.93200 54.56706 27808 ft 493 kts 250°
2026-05-07 23:24 23.92068 54.53169 27811 ft 493 kts 250°
2026-05-07 23:24 23.90934 54.49629 27814 ft 493 kts 250°
2026-05-07 23:25 23.89800 54.46090 27812 ft 493 kts 250°
2026-05-07 23:25 23.88664 54.42550 27815 ft 494 kts 250°
2026-05-07 23:25 23.87527 54.39012 27814 ft 494 kts 250°
2026-05-07 23:25 23.86389 54.35468 27815 ft 494 kts 250°
2026-05-07 23:26 23.85248 54.31923 27815 ft 495 kts 250°
2026-05-07 23:26 23.84122 54.28421 27815 ft 495 kts 250°
2026-05-07 23:26 23.82978 54.24872 27814 ft 495 kts 250°
2026-05-07 23:26 23.81833 54.21323 27812 ft 496 kts 250°
2026-05-07 23:27 23.79540 54.14227 27814 ft 495 kts 250°
2026-05-07 23:27 23.78393 54.10681 27813 ft 495 kts 250°
2026-05-07 23:27 23.77246 54.07136 27818 ft 495 kts 250°
2026-05-07 23:28 23.76101 54.03601 27817 ft 495 kts 250°
2026-05-07 23:28 23.74953 54.00059 27818 ft 495 kts 250°
2026-05-07 23:28 23.73804 53.96518 27822 ft 495 kts 250°
2026-05-07 23:28 23.72654 53.92978 27822 ft 495 kts 250°
2026-05-07 23:29 23.71503 53.89439 27820 ft 495 kts 250°
2026-05-07 23:29 23.70352 53.85901 27820 ft 495 kts 250°
2026-05-07 23:29 23.69199 53.82357 27870 ft 497 kts 250°
2026-05-07 23:29 23.68433 53.80007 27990 ft 497 kts 250°
2026-05-07 23:30 23.67277 53.76467 28245 ft 494 kts 250°
2026-05-07 23:30 23.66126 53.72942 28522 ft 492 kts 250°
2026-05-07 23:30 23.64980 53.69432 28787 ft 490 kts 250°
2026-05-07 23:30 23.63837 53.65934 29048 ft 489 kts 250°
2026-05-07 23:31 23.62695 53.62443 29253 ft 488 kts 250°
2026-05-07 23:31 23.61553 53.58957 29479 ft 488 kts 250°
2026-05-07 23:31 23.60412 53.55477 29695 ft 487 kts 250°
2026-05-07 23:31 23.59273 53.52007 29770 ft 488 kts 250°
2026-05-07 23:32 23.56989 53.45051 29809 ft 487 kts 250°
2026-05-07 23:32 23.54705 53.38113 29828 ft 486 kts 250°
2026-05-07 23:33 23.52423 53.31189 29826 ft 485 kts 250°
2026-05-07 23:33 23.50140 53.24272 29831 ft 485 kts 250°
2026-05-07 23:34 23.47852 53.17356 29827 ft 485 kts 250°
2026-05-07 23:34 23.45560 53.10437 29831 ft 486 kts 250°
2026-05-07 23:35 23.43265 53.03520 29826 ft 486 kts 249°
2026-05-07 23:35 23.40929 52.96606 29824 ft 486 kts 247°
2026-05-07 23:36 23.37838 52.90066 29831 ft 486 kts 240°
2026-05-07 23:36 23.34492 52.83681 29826 ft 486 kts 240°
2026-05-07 23:37 23.31199 52.77317 29825 ft 486 kts 240°
2026-05-07 23:37 23.27899 52.70904 29823 ft 486 kts 241°
2026-05-07 23:38 23.24597 52.64489 29826 ft 486 kts 241°
2026-05-07 23:38 23.21293 52.58083 29824 ft 485 kts 240°
2026-05-07 23:39 23.18108 52.51628 29821 ft 485 kts 245°
2026-05-07 23:39 23.15817 52.44743 29827 ft 484 kts 251°
2026-05-07 23:40 23.13668 52.37804 29822 ft 485 kts 250°
2026-05-07 23:40 23.11457 52.30885 29823 ft 485 kts 250°
2026-05-07 23:41 23.09245 52.23967 29822 ft 485 kts 250°
2026-05-07 23:41 23.07034 52.17040 29824 ft 485 kts 250°
2026-05-07 23:42 23.04823 52.10116 29827 ft 485 kts 250°
2026-05-07 23:42 23.02609 52.03193 29826 ft 485 kts 250°
2026-05-07 23:43 23.00391 51.96271 29827 ft 485 kts 250°
2026-05-07 23:43 22.98170 51.89359 29826 ft 486 kts 250°
2026-05-07 23:44 22.95945 51.82440 29827 ft 485 kts 250°
2026-05-07 23:44 22.93721 51.75529 29831 ft 485 kts 250°
2026-05-07 23:45 22.91492 51.68619 29831 ft 485 kts 250°
2026-05-07 23:45 22.89262 51.61715 29833 ft 485 kts 250°
2026-05-07 23:46 22.87027 51.54813 29836 ft 485 kts 250°
2026-05-07 23:46 22.85165 51.47792 29824 ft 486 kts 259°
2026-05-07 23:47 22.84599 51.40494 29828 ft 488 kts 270°
2026-05-07 23:47 22.85035 51.33150 29838 ft 488 kts 272°
2026-05-07 23:48 22.85543 51.25814 29833 ft 488 kts 272°
2026-05-07 23:48 22.86021 51.18468 29831 ft 488 kts 272°
2026-05-07 23:49 22.86472 51.11123 29834 ft 488 kts 272°
2026-05-07 23:49 22.86910 51.03826 29835 ft 488 kts 272°
2026-05-07 23:50 22.87347 50.96482 29839 ft 488 kts 272°
2026-05-07 23:50 22.87782 50.89145 29840 ft 488 kts 272°
2026-05-07 23:51 22.88215 50.81802 29842 ft 488 kts 272°
2026-05-07 23:51 22.88645 50.74460 29835 ft 488 kts 272°
2026-05-07 23:52 22.89070 50.67122 29835 ft 487 kts 272°
2026-05-07 23:52 22.89490 50.59790 29834 ft 487 kts 272°
2026-05-07 23:53 22.89909 50.52469 29843 ft 486 kts 272°
2026-05-07 23:53 22.90321 50.45151 29832 ft 486 kts 271°
2026-05-07 23:54 22.90731 50.37836 29840 ft 485 kts 272°
2026-05-07 23:54 22.91139 50.30542 29835 ft 485 kts 272°
2026-05-07 23:55 22.91544 50.23238 29844 ft 485 kts 271°
2026-05-07 23:55 22.91940 50.15947 29837 ft 485 kts 271°
2026-05-07 23:56 22.92336 50.08638 29842 ft 485 kts 271°
2026-05-07 23:56 22.92728 50.01335 29839 ft 486 kts 271°
2026-05-07 23:57 22.93119 49.94020 29845 ft 486 kts 271°
2026-05-07 23:57 22.93507 49.86702 29849 ft 486 kts 271°
2026-05-07 23:58 22.93890 49.79389 29834 ft 485 kts 271°
2026-05-07 23:58 22.94270 49.72085 29844 ft 485 kts 271°
2026-05-07 23:59 22.94645 49.64795 29846 ft 484 kts 271°
2026-05-07 23:59 22.95017 49.57501 29842 ft 484 kts 271°
2026-05-08 00:00 22.95384 49.50259 29846 ft 484 kts 270°
2026-05-08 00:00 22.95749 49.42972 29842 ft 484 kts 270°
2026-05-08 00:01 22.96110 49.35684 29844 ft 484 kts 270°
2026-05-08 00:01 22.96468 49.28401 29842 ft 484 kts 270°
2026-05-08 00:02 22.96824 49.21108 29847 ft 484 kts 270°
2026-05-08 00:02 22.97176 49.13809 29855 ft 484 kts 270°
2026-05-08 00:03 22.97526 49.06519 29855 ft 483 kts 270°
2026-05-08 00:03 22.97873 48.99241 29844 ft 482 kts 270°
2026-05-08 00:04 22.98213 48.91973 29853 ft 482 kts 270°
2026-05-08 00:04 22.98545 48.84706 29850 ft 482 kts 270°
2026-05-08 00:05 22.98883 48.77441 29865 ft 482 kts 270°
2026-05-08 00:05 22.99216 48.70182 29852 ft 482 kts 270°
2026-05-08 00:06 22.99542 48.62913 29865 ft 482 kts 270°
2026-05-08 00:06 22.99866 48.55628 29858 ft 483 kts 270°
2026-05-08 00:07 23.00189 48.48350 29865 ft 483 kts 269°
2026-05-08 00:07 23.00508 48.41067 29846 ft 483 kts 269°
2026-05-08 00:08 23.00822 48.33795 29868 ft 482 kts 269°
2026-05-08 00:08 23.01131 48.26531 29860 ft 481 kts 269°
2026-05-08 00:09 23.01439 48.19273 29852 ft 481 kts 269°
2026-05-08 00:09 23.01742 48.12017 29853 ft 481 kts 269°
2026-05-08 00:10 23.02043 48.04764 29875 ft 481 kts 269°
2026-05-08 00:10 23.02340 47.97524 29876 ft 481 kts 269°
2026-05-08 00:11 23.02632 47.90319 29866 ft 481 kts 269°
2026-05-08 00:11 23.03883 47.83211 29902 ft 492 kts 292°
2026-05-08 00:12 23.05743 47.80056 29890 ft 502 kts 304°
2026-05-08 00:12 23.08226 47.77352 29876 ft 513 kts 319°
2026-05-08 00:12 23.14346 47.73259 29865 ft 519 kts 324°
2026-05-08 00:13 23.20558 47.69229 29896 ft 521 kts 323°
2026-05-08 00:13 23.26733 47.65084 29911 ft 522 kts 323°
2026-05-08 00:14 23.32883 47.60896 29905 ft 522 kts 323°
2026-05-08 00:14 23.39036 47.56711 29917 ft 521 kts 322°
2026-05-08 00:15 23.45169 47.52539 29928 ft 518 kts 322°
2026-05-08 00:15 23.51269 47.48401 29923 ft 515 kts 322°
2026-05-08 00:16 23.57347 47.44283 29940 ft 513 kts 322°
2026-05-08 00:16 23.63403 47.40171 29951 ft 512 kts 322°
2026-05-08 00:17 23.69443 47.36062 29947 ft 511 kts 322°
2026-05-08 00:17 23.74448 47.32655 29945 ft 510 kts 322°
2026-05-08 00:18 23.80466 47.28555 29974 ft 509 kts 322°
2026-05-08 00:18 23.86475 47.24455 29960 ft 509 kts 322°
2026-05-08 00:19 23.92481 47.20353 29961 ft 509 kts 322°
2026-05-08 00:19 23.98483 47.16249 29974 ft 509 kts 322°
2026-05-08 00:20 24.04477 47.12145 29973 ft 509 kts 322°
2026-05-08 00:20 24.10488 47.08054 29977 ft 510 kts 324°
2026-05-08 00:21 24.16943 47.04693 29992 ft 516 kts 332°
2026-05-08 00:21 24.23547 47.01707 29995 ft 517 kts 332°
2026-05-08 00:22 24.30179 46.98673 29989 ft 517 kts 332°
2026-05-08 00:22 24.36796 46.95596 30003 ft 516 kts 331°
2026-05-08 00:23 24.43408 46.92508 30006 ft 516 kts 331°
2026-05-08 00:23 24.50009 46.89424 30004 ft 516 kts 331°
2026-05-08 00:24 24.56610 46.86336 30009 ft 515 kts 331°
2026-05-08 00:24 24.63207 46.83248 30010 ft 515 kts 331°
2026-05-08 00:25 24.69799 46.80158 30011 ft 515 kts 331°
2026-05-08 00:25 24.76384 46.77069 30022 ft 514 kts 331°
2026-05-08 00:26 24.82961 46.73979 30024 ft 514 kts 331°
2026-05-08 00:26 24.89541 46.70885 30022 ft 514 kts 331°
2026-05-08 00:27 24.96003 46.67571 30014 ft 508 kts 324°
2026-05-08 00:27 25.01754 46.63175 30025 ft 500 kts 314°
2026-05-08 00:28 25.06836 46.57992 30029 ft 497 kts 311°
2026-05-08 00:28 25.11881 46.52757 30028 ft 498 kts 311°
2026-05-08 00:29 25.16961 46.47535 30030 ft 500 kts 311°
2026-05-08 00:29 25.22063 46.42315 30026 ft 500 kts 311°
2026-05-08 00:30 25.27168 46.37088 30028 ft 501 kts 311°
2026-05-08 00:30 25.32239 46.31884 30028 ft 501 kts 311°
2026-05-08 00:31 25.37338 46.26642 30019 ft 501 kts 311°
2026-05-08 00:31 25.42440 46.21392 30016 ft 501 kts 311°
2026-05-08 00:32 25.47535 46.16144 30028 ft 500 kts 310°
2026-05-08 00:32 25.52621 46.10899 30003 ft 499 kts 310°
2026-05-08 00:33 25.57694 46.05661 30002 ft 498 kts 310°
2026-05-08 00:33 25.62759 46.00427 30011 ft 497 kts 310°
2026-05-08 00:34 25.67818 45.95194 29999 ft 497 kts 310°
2026-05-08 00:34 25.72868 45.89964 29998 ft 497 kts 310°
2026-05-08 00:35 25.77923 45.84722 29991 ft 497 kts 310°
2026-05-08 00:35 25.82976 45.79477 29979 ft 497 kts 310°
2026-05-08 00:36 25.88020 45.74230 29985 ft 497 kts 310°
2026-05-08 00:36 25.93065 45.68983 29972 ft 497 kts 310°
2026-05-08 00:37 25.98113 45.63731 29975 ft 497 kts 310°
2026-05-08 00:38 26.05680 45.55839 29971 ft 497 kts 310°
2026-05-08 00:38 26.10721 45.50575 29983 ft 498 kts 310°
2026-05-08 00:39 26.15737 45.45330 29965 ft 498 kts 310°
2026-05-08 00:39 26.20784 45.40036 29963 ft 499 kts 309°
2026-05-08 00:40 26.25825 45.34723 29975 ft 499 kts 309°
2026-05-08 00:40 26.30873 45.29404 29973 ft 500 kts 309°
2026-05-08 00:41 26.35939 45.24086 29961 ft 500 kts 309°
2026-05-08 00:41 26.41005 45.18769 29992 ft 501 kts 309°
2026-05-08 00:42 26.46080 45.13434 29975 ft 501 kts 309°
2026-05-08 00:42 26.51152 45.08093 29957 ft 501 kts 309°
2026-05-08 00:43 26.56219 45.02749 29987 ft 500 kts 309°
2026-05-08 00:43 26.61286 44.97400 29974 ft 502 kts 309°
2026-05-08 00:44 26.66377 44.92030 29972 ft 505 kts 309°
2026-05-08 00:44 26.71492 44.86624 29973 ft 507 kts 309°
2026-05-08 00:45 26.76622 44.81196 29969 ft 508 kts 309°
2026-05-08 00:45 26.81750 44.75748 29965 ft 508 kts 309°
2026-05-08 00:46 26.86833 44.70330 29959 ft 507 kts 309°
2026-05-08 00:46 26.91939 44.64879 29971 ft 507 kts 308°
2026-05-08 00:47 26.97037 44.59431 29962 ft 506 kts 308°
2026-05-08 00:47 27.02133 44.53985 29954 ft 506 kts 308°
2026-05-08 00:48 27.07226 44.48553 29954 ft 505 kts 308°
2026-05-08 00:48 27.12318 44.43112 29961 ft 505 kts 308°
2026-05-08 00:49 27.17416 44.37657 29957 ft 507 kts 308°
2026-05-08 00:49 27.22524 44.32177 29958 ft 508 kts 308°
2026-05-08 00:50 27.27643 44.26678 29988 ft 510 kts 308°
2026-05-08 00:50 27.32778 44.21160 29985 ft 511 kts 309°
2026-05-08 00:51 27.37882 44.15661 29960 ft 512 kts 309°
2026-05-08 00:51 27.43022 44.10119 29965 ft 511 kts 309°
2026-05-08 00:52 27.48153 44.04583 29959 ft 511 kts 309°
2026-05-08 00:52 27.53273 43.99042 29965 ft 510 kts 308°
2026-05-08 00:53 27.58390 43.93499 29965 ft 510 kts 308°
2026-05-08 00:53 27.63504 43.87951 29965 ft 510 kts 308°
2026-05-08 00:54 27.68619 43.82398 29981 ft 510 kts 308°
2026-05-08 00:54 27.73729 43.76841 29959 ft 511 kts 308°
2026-05-08 00:55 27.78847 43.71266 29956 ft 511 kts 308°
2026-05-08 00:55 27.83970 43.65681 29964 ft 512 kts 308°
2026-05-08 00:56 27.88958 43.59964 29986 ft 510 kts 306°
2026-05-08 00:56 27.93762 43.54075 29962 ft 509 kts 305°
2026-05-08 00:57 27.98568 43.48186 29974 ft 509 kts 306°
2026-05-08 00:57 28.03374 43.42361 30001 ft 510 kts 306°
2026-05-08 00:58 28.08259 43.36466 29981 ft 509 kts 306°
2026-05-08 00:58 28.13091 43.30623 29979 ft 508 kts 306°
2026-05-08 00:59 28.17915 43.24779 29983 ft 507 kts 305°
2026-05-08 00:59 28.22695 43.18974 29988 ft 507 kts 305°
2026-05-08 01:00 28.27509 43.13124 29989 ft 507 kts 305°
2026-05-08 01:00 28.32324 43.07261 29992 ft 508 kts 305°
2026-05-08 01:01 28.37144 43.01387 30015 ft 509 kts 305°
2026-05-08 01:01 28.41970 42.95495 30004 ft 510 kts 305°
2026-05-08 01:02 28.46794 42.89598 30007 ft 510 kts 305°
2026-05-08 01:02 28.51622 42.83691 30011 ft 510 kts 305°
2026-05-08 01:03 28.56443 42.77776 30017 ft 510 kts 305°
2026-05-08 01:03 28.61262 42.71860 29998 ft 509 kts 305°
2026-05-08 01:04 28.66072 42.65945 30002 ft 509 kts 305°
2026-05-08 01:04 28.70871 42.60023 30029 ft 509 kts 304°
2026-05-08 01:05 28.75667 42.54091 30020 ft 509 kts 304°
2026-05-08 01:05 28.80453 42.48164 30014 ft 508 kts 304°
2026-05-08 01:06 28.85240 42.42227 30015 ft 508 kts 304°
2026-05-08 01:06 28.90024 42.36285 30020 ft 508 kts 304°
2026-05-08 01:07 28.94768 42.30387 30018 ft 507 kts 304°
2026-05-08 01:07 28.99529 42.24455 30021 ft 506 kts 304°
2026-05-08 01:08 29.04277 42.18533 30048 ft 505 kts 305°
2026-05-08 01:08 29.09016 42.12619 30019 ft 504 kts 305°
2026-05-08 01:09 29.13733 42.06729 30027 ft 502 kts 305°
2026-05-08 01:09 29.18445 42.00835 30038 ft 502 kts 305°
2026-05-08 01:10 29.23149 41.94937 30040 ft 501 kts 305°
2026-05-08 01:10 29.27052 41.90039 30036 ft 500 kts 305°
2026-05-08 01:11 29.31735 41.84158 30040 ft 498 kts 305°
2026-05-08 01:11 29.36391 41.78301 30033 ft 497 kts 305°
2026-05-08 01:12 29.41035 41.72448 30053 ft 495 kts 306°
2026-05-08 01:12 29.45664 41.66606 30048 ft 494 kts 306°
2026-05-08 01:13 29.50278 41.60774 30040 ft 493 kts 306°
2026-05-08 01:13 29.54882 41.54941 30075 ft 493 kts 306°
2026-05-08 01:14 29.59487 41.49103 30046 ft 493 kts 306°
2026-05-08 01:14 29.64078 41.43276 30047 ft 492 kts 306°
2026-05-08 01:15 29.68673 41.37432 30054 ft 492 kts 306°
2026-05-08 01:15 29.73260 41.31602 30058 ft 492 kts 309°
2026-05-08 01:16 29.78283 41.26196 30070 ft 495 kts 314°
2026-05-08 01:16 29.83465 41.20960 30057 ft 496 kts 314°
2026-05-08 01:17 29.88630 41.15699 30062 ft 495 kts 314°
2026-05-08 01:17 29.93745 41.10450 30073 ft 496 kts 314°
2026-05-08 01:18 29.98891 41.05151 30065 ft 496 kts 314°
2026-05-08 01:18 30.04029 40.99852 30064 ft 496 kts 314°
2026-05-08 01:19 30.09167 40.94547 30065 ft 495 kts 314°
2026-05-08 01:19 30.14301 40.89239 30068 ft 495 kts 314°
2026-05-08 01:20 30.19433 40.83925 30062 ft 495 kts 314°
2026-05-08 01:20 30.24557 40.78610 30065 ft 495 kts 314°
2026-05-08 01:21 30.29673 40.73296 30071 ft 494 kts 314°
2026-05-08 01:21 30.34786 40.67979 30067 ft 494 kts 314°
2026-05-08 01:22 30.39891 40.62667 30067 ft 494 kts 315°
2026-05-08 01:22 30.45041 40.57389 30075 ft 494 kts 315°
2026-05-08 01:23 30.50204 40.52125 30068 ft 494 kts 315°
2026-05-08 01:23 30.55353 40.46851 30079 ft 493 kts 315°
2026-05-08 01:24 30.60491 40.41573 30072 ft 493 kts 316°
2026-05-08 01:24 30.65625 40.36293 30070 ft 493 kts 316°
2026-05-08 01:25 30.70753 40.31008 30070 ft 493 kts 316°
2026-05-08 01:25 30.75873 40.25726 30068 ft 492 kts 315°
2026-05-08 01:26 30.80986 40.20425 30078 ft 492 kts 316°
2026-05-08 01:26 30.86097 40.15125 30069 ft 492 kts 316°
2026-05-08 01:27 30.91207 40.09835 30071 ft 491 kts 316°
2026-05-08 01:27 30.96275 40.04579 30069 ft 491 kts 316°
2026-05-08 01:28 31.01401 39.99255 30068 ft 491 kts 316°
2026-05-08 01:28 31.06459 39.93988 30067 ft 491 kts 316°
2026-05-08 01:29 31.11549 39.88678 30072 ft 491 kts 316°
2026-05-08 01:29 31.16640 39.83367 30068 ft 491 kts 315°
2026-05-08 01:30 31.21723 39.78051 30073 ft 491 kts 315°
2026-05-08 01:30 31.26811 39.72718 30071 ft 492 kts 315°
2026-05-08 01:31 31.31904 39.67377 30074 ft 492 kts 315°
2026-05-08 01:31 31.36995 39.62031 30070 ft 492 kts 315°
2026-05-08 01:32 31.42083 39.56681 30070 ft 492 kts 315°
2026-05-08 01:32 31.47164 39.51316 30073 ft 492 kts 315°
2026-05-08 01:33 31.52242 39.45934 30073 ft 492 kts 315°
2026-05-08 01:33 31.57316 39.40548 30077 ft 492 kts 315°
2026-05-08 01:34 31.62402 39.35149 30080 ft 493 kts 315°
2026-05-08 01:34 31.67482 39.29748 30062 ft 493 kts 314°
2026-05-08 01:35 31.72565 39.24334 30081 ft 493 kts 314°
2026-05-08 01:35 31.77663 39.18930 30063 ft 494 kts 317°
2026-05-08 01:36 31.83336 39.14311 30072 ft 499 kts 328°
2026-05-08 01:36 31.89565 39.10680 30075 ft 499 kts 330°
2026-05-08 01:37 31.95774 39.07083 30081 ft 497 kts 330°
2026-05-08 01:37 32.01895 39.03461 30075 ft 494 kts 330°
2026-05-08 01:38 32.08037 38.99829 30077 ft 493 kts 330°
2026-05-08 01:38 32.14174 38.96213 30087 ft 493 kts 330°
2026-05-08 01:39 32.20295 38.92606 30078 ft 492 kts 330°
2026-05-08 01:39 32.26414 38.88988 30079 ft 492 kts 330°
2026-05-08 01:40 32.32532 38.85368 30082 ft 491 kts 330°
2026-05-08 01:40 32.38643 38.81743 30086 ft 491 kts 331°
2026-05-08 01:41 32.44743 38.78124 30075 ft 490 kts 331°
2026-05-08 01:41 32.50843 38.74496 30078 ft 490 kts 331°
2026-05-08 01:42 32.56927 38.70873 30073 ft 490 kts 331°
2026-05-08 01:42 32.63014 38.67242 30094 ft 490 kts 331°
2026-05-08 01:43 32.69059 38.63635 30082 ft 489 kts 331°
2026-05-08 01:43 32.75123 38.60012 30068 ft 487 kts 331°
2026-05-08 01:44 32.81159 38.56402 30072 ft 485 kts 331°
2026-05-08 01:44 32.87180 38.52796 30078 ft 484 kts 331°
2026-05-08 01:45 32.93187 38.49190 30098 ft 483 kts 330°
2026-05-08 01:45 32.99186 38.45584 30076 ft 482 kts 330°
2026-05-08 01:46 33.05171 38.41980 30080 ft 482 kts 330°
2026-05-08 01:46 33.11163 38.38370 30085 ft 483 kts 330°
2026-05-08 01:47 33.17151 38.34740 30099 ft 483 kts 330°
2026-05-08 01:47 33.23134 38.31078 30085 ft 483 kts 330°
2026-05-08 01:48 33.32112 38.25595 30088 ft 483 kts 330°
2026-05-08 01:48 33.38089 38.21938 30089 ft 483 kts 330°
2026-05-08 01:49 33.44072 38.18276 30122 ft 482 kts 331°
2026-05-08 01:49 33.49971 38.14678 30090 ft 470 kts 331°
2026-05-08 01:50 33.55815 38.11135 30108 ft 472 kts 331°
2026-05-08 01:50 33.61683 38.07573 30102 ft 474 kts 331°
2026-05-08 01:51 33.67578 38.03987 30095 ft 475 kts 331°
2026-05-08 01:51 33.73479 38.00389 30113 ft 476 kts 331°
2026-05-08 01:52 33.79335 37.96811 30104 ft 475 kts 331°
2026-05-08 01:52 33.85068 37.92875 30094 ft 469 kts 320°
2026-05-08 01:53 33.89616 37.87425 30111 ft 463 kts 307°
2026-05-08 01:53 33.93090 37.80932 30110 ft 460 kts 302°
2026-05-08 01:54 33.96445 37.74371 30111 ft 460 kts 302°
2026-05-08 01:54 33.99824 37.67843 30127 ft 459 kts 302°
2026-05-08 01:55 34.03215 37.61332 30122 ft 458 kts 302°
2026-05-08 01:55 34.06603 37.54818 30119 ft 458 kts 302°
2026-05-08 01:56 34.09982 37.48302 30122 ft 458 kts 302°
2026-05-08 01:56 34.13355 37.41791 30135 ft 457 kts 303°
2026-05-08 01:57 34.16723 37.35286 30112 ft 456 kts 303°
2026-05-08 01:57 34.19829 37.28622 30117 ft 456 kts 293°
2026-05-08 01:58 34.21675 37.21301 30117 ft 457 kts 284°
2026-05-08 01:58 34.22401 37.13655 30126 ft 459 kts 278°
2026-05-08 01:59 34.22951 37.05956 30135 ft 460 kts 278°
2026-05-08 01:59 34.23529 36.98282 30135 ft 463 kts 278°
2026-05-08 02:00 34.24134 36.90527 30145 ft 464 kts 278°
2026-05-08 02:00 34.24738 36.82755 30138 ft 464 kts 278°
2026-05-08 02:01 34.25239 36.76244 30145 ft 465 kts 278°
2026-05-08 02:01 34.25832 36.68465 30134 ft 464 kts 278°
2026-05-08 02:02 34.26420 36.60700 30139 ft 464 kts 278°
2026-05-08 02:02 34.26901 36.52922 30138 ft 464 kts 275°
2026-05-08 02:03 34.27148 36.45121 30137 ft 464 kts 275°
2026-05-08 02:03 34.27391 36.37373 30119 ft 464 kts 275°
2026-05-08 02:04 34.27667 36.29550 30119 ft 463 kts 275°
2026-05-08 02:04 34.27948 36.21826 30117 ft 463 kts 275°
2026-05-08 02:05 34.28221 36.14048 30125 ft 463 kts 275°
2026-05-08 02:05 34.28491 36.06265 30129 ft 464 kts 275°
2026-05-08 02:06 34.28762 35.98462 30122 ft 465 kts 275°
2026-05-08 02:06 34.29128 35.90668 30106 ft 465 kts 276°
2026-05-08 02:07 34.29508 35.82874 30099 ft 464 kts 276°
2026-05-08 02:07 34.29876 35.75075 30065 ft 464 kts 276°
2026-05-08 02:08 34.30887 35.67402 30085 ft 462 kts 285°
2026-05-08 02:08 34.32852 35.60022 30081 ft 461 kts 290°
2026-05-08 02:09 34.34945 35.52680 30079 ft 462 kts 290°
2026-05-08 02:09 34.37023 35.45317 30074 ft 463 kts 290°
2026-05-08 02:10 34.39091 35.37939 30080 ft 463 kts 289°
2026-05-08 02:10 34.41143 35.30584 30075 ft 464 kts 290°
2026-05-08 02:11 34.43214 35.23136 30074 ft 464 kts 289°
2026-05-08 02:11 34.45252 35.15771 30076 ft 464 kts 289°
2026-05-08 02:12 34.47551 35.08508 30063 ft 460 kts 301°
2026-05-08 02:12 34.51728 35.02664 30082 ft 462 kts 320°
2026-05-08 02:13 34.57194 34.98563 30083 ft 464 kts 328°
2026-05-08 02:13 34.62823 34.94689 30086 ft 466 kts 328°
2026-05-08 02:14 34.68446 34.90738 30086 ft 467 kts 328°
2026-05-08 02:14 34.74059 34.86743 30085 ft 468 kts 328°
2026-05-08 02:15 34.79683 34.82737 30087 ft 468 kts 328°
2026-05-08 02:15 34.85299 34.78734 30087 ft 467 kts 328°
2026-05-08 02:16 34.90891 34.74736 30086 ft 465 kts 327°
2026-05-08 02:16 34.96461 34.70746 30083 ft 464 kts 327°
2026-05-08 02:17 35.02020 34.66761 30097 ft 463 kts 327°
2026-05-08 02:17 35.07573 34.62775 30105 ft 464 kts 327°
2026-05-08 02:18 35.13135 34.58783 30099 ft 464 kts 327°
2026-05-08 02:18 35.18659 34.54806 30097 ft 464 kts 327°
2026-05-08 02:19 35.24253 34.50771 30097 ft 464 kts 327°
2026-05-08 02:19 35.29771 34.46786 30092 ft 464 kts 327°
2026-05-08 02:20 35.35333 34.42760 30102 ft 465 kts 327°
2026-05-08 02:20 35.40907 34.38724 30099 ft 465 kts 327°
2026-05-08 02:21 35.46479 34.34683 30094 ft 466 kts 327°
2026-05-08 02:21 35.52060 34.30629 30099 ft 466 kts 327°
2026-05-08 02:22 35.57643 34.26565 30109 ft 466 kts 327°
2026-05-08 02:22 35.60277 34.24653 30650 ft 437 kts 328°
2026-05-08 02:23 35.61504 34.23778 31280 ft 434 kts 328°
2026-05-08 02:23 35.64168 34.21853 30290 ft 455 kts 327°
2026-05-08 02:23 35.66873 34.19848 30391 ft 456 kts 327°
2026-05-08 02:24 35.69620 34.17822 30250 ft 463 kts 327°
2026-05-08 02:24 35.72393 34.15787 30183 ft 467 kts 327°
2026-05-08 02:24 35.77976 34.11676 30106 ft 467 kts 327°
2026-05-08 02:25 35.83530 34.07565 30102 ft 464 kts 327°
2026-05-08 02:25 35.89062 34.03473 30100 ft 463 kts 327°
2026-05-08 02:26 35.94573 33.99377 30103 ft 462 kts 327°
2026-05-08 02:26 36.00051 33.95217 30101 ft 462 kts 326°
2026-05-08 02:27 36.05529 33.91052 30105 ft 463 kts 326°
2026-05-08 02:27 36.11021 33.86880 30111 ft 463 kts 326°
2026-05-08 02:28 36.16514 33.82706 30109 ft 464 kts 326°
2026-05-08 02:28 36.22012 33.78518 30124 ft 464 kts 326°
2026-05-08 02:29 36.27471 33.74353 30119 ft 464 kts 326°
2026-05-08 02:29 36.32964 33.70164 30122 ft 463 kts 326°
2026-05-08 02:30 36.38453 33.65984 30127 ft 463 kts 327°
2026-05-08 02:30 36.43933 33.61799 30147 ft 463 kts 326°
2026-05-08 02:31 36.49424 33.57597 30141 ft 464 kts 327°
2026-05-08 02:31 36.54920 33.53384 30152 ft 464 kts 327°
2026-05-08 02:32 36.60417 33.49166 30148 ft 464 kts 327°
2026-05-08 02:32 36.65912 33.44939 30165 ft 464 kts 326°
2026-05-08 02:33 36.71410 33.40705 30181 ft 464 kts 326°
2026-05-08 02:33 36.76895 33.36473 30178 ft 464 kts 327°
2026-05-08 02:34 36.82377 33.32234 30184 ft 463 kts 326°
2026-05-08 02:34 36.87503 33.27411 30185 ft 461 kts 317°
2026-05-08 02:35 36.91935 33.21656 30191 ft 459 kts 311°
2026-05-08 02:35 36.96230 33.15742 30209 ft 459 kts 311°
2026-05-08 02:36 37.00513 33.09872 30206 ft 460 kts 312°
2026-05-08 02:36 37.04840 33.03955 30219 ft 461 kts 312°
2026-05-08 02:37 37.09166 32.98044 30221 ft 461 kts 312°
2026-05-08 02:37 37.13487 32.92125 30232 ft 460 kts 312°
2026-05-08 02:38 37.17795 32.86211 30226 ft 459 kts 312°
2026-05-08 02:38 37.22100 32.80292 30227 ft 460 kts 312°
2026-05-08 02:39 37.26412 32.74352 30232 ft 461 kts 312°
2026-05-08 02:39 37.30727 32.68396 30213 ft 461 kts 312°
2026-05-08 02:40 37.35042 32.62432 30211 ft 461 kts 312°
2026-05-08 02:40 37.39359 32.56455 30241 ft 462 kts 312°
2026-05-08 02:41 37.43667 32.50477 30221 ft 461 kts 312°
2026-05-08 02:41 37.47977 32.44487 30238 ft 462 kts 312°
2026-05-08 02:42 37.52283 32.38487 30233 ft 461 kts 312°
2026-05-08 02:42 37.56587 32.32485 30224 ft 461 kts 311°
2026-05-08 02:43 37.60886 32.26474 30215 ft 462 kts 311°
2026-05-08 02:43 37.65204 32.20424 30597 ft 464 kts 311°
2026-05-08 02:44 37.67353 32.17410 30983 ft 460 kts 311°
2026-05-08 02:44 37.69480 32.14425 31376 ft 456 kts 311°
2026-05-08 02:44 37.71593 32.11458 31782 ft 453 kts 311°
2026-05-08 02:44 37.73693 32.08506 32116 ft 451 kts 311°
2026-05-08 02:45 37.77895 32.02588 32215 ft 452 kts 311°
2026-05-08 02:45 37.82082 31.96680 32216 ft 450 kts 311°
2026-05-08 02:46 37.86218 31.90833 32215 ft 448 kts 311°
2026-05-08 02:46 37.90368 31.84957 32216 ft 447 kts 311°
2026-05-08 02:47 37.94510 31.79082 32209 ft 447 kts 311°
2026-05-08 02:47 37.98670 31.73169 32220 ft 447 kts 311°
2026-05-08 02:48 38.02779 31.67326 32220 ft 447 kts 311°
2026-05-08 02:48 38.06912 31.61433 32214 ft 447 kts 311°
2026-05-08 02:49 38.11044 31.55524 32229 ft 448 kts 311°
2026-05-08 02:49 38.15185 31.49594 32224 ft 449 kts 311°
2026-05-08 02:50 38.18621 31.44664 32226 ft 448 kts 311°
2026-05-08 02:50 38.22749 31.38732 32204 ft 447 kts 311°
2026-05-08 02:51 38.26866 31.32803 32214 ft 446 kts 311°
2026-05-08 02:51 38.30969 31.26885 32221 ft 445 kts 311°
2026-05-08 02:52 38.35059 31.20973 32220 ft 443 kts 311°
2026-05-08 02:52 38.39113 31.15103 32223 ft 440 kts 311°
2026-05-08 02:53 38.43140 31.09260 32221 ft 438 kts 311°
2026-05-08 02:53 38.47222 31.03515 32220 ft 436 kts 315°
2026-05-08 02:54 38.51881 30.98555 32216 ft 437 kts 323°
2026-05-08 02:54 38.56908 30.94157 32225 ft 439 kts 324°
2026-05-08 02:55 38.64431 30.87522 32220 ft 437 kts 323°
2026-05-08 02:56 38.69418 30.83090 32220 ft 436 kts 323°
2026-05-08 02:56 38.74388 30.78659 32221 ft 436 kts 323°
2026-05-08 02:57 38.79360 30.74224 32224 ft 436 kts 323°
2026-05-08 02:57 38.84356 30.69780 32225 ft 438 kts 325°
2026-05-08 02:58 38.89712 30.66011 32231 ft 441 kts 331°
2026-05-08 02:58 38.95203 30.62486 32216 ft 442 kts 330°
2026-05-08 02:59 39.00702 30.58925 32212 ft 444 kts 330°
2026-05-08 02:59 39.06227 30.55323 32223 ft 446 kts 330°
2026-05-08 03:00 39.11779 30.51693 32227 ft 448 kts 330°
2026-05-08 03:00 39.17348 30.48047 32207 ft 449 kts 330°
2026-05-08 03:01 39.22920 30.44394 32238 ft 449 kts 330°
2026-05-08 03:01 39.28495 30.40731 32217 ft 450 kts 330°
2026-05-08 03:02 39.34026 30.37088 32212 ft 449 kts 330°
2026-05-08 03:02 39.39580 30.33424 32216 ft 447 kts 330°
2026-05-08 03:03 39.45108 30.29773 32229 ft 445 kts 330°
2026-05-08 03:03 39.50647 30.26161 32219 ft 447 kts 333°
2026-05-08 03:04 39.56426 30.23071 32219 ft 451 kts 335°
2026-05-08 03:04 39.62250 30.20008 32216 ft 453 kts 335°
2026-05-08 03:05 39.68098 30.16902 32216 ft 454 kts 334°
2026-05-08 03:05 39.73956 30.13765 32204 ft 456 kts 334°
2026-05-08 03:06 39.79834 30.10611 32210 ft 457 kts 334°
2026-05-08 03:06 39.85704 30.07455 32202 ft 456 kts 334°
2026-05-08 03:07 39.91552 30.04308 32186 ft 453 kts 334°
2026-05-08 03:07 39.97380 30.01165 32177 ft 453 kts 334°
2026-05-08 03:08 40.03194 29.98020 32184 ft 453 kts 334°
2026-05-08 03:08 40.09025 29.94862 32174 ft 454 kts 334°
2026-05-08 03:09 40.14866 29.91688 32173 ft 455 kts 334°
2026-05-08 03:09 40.20730 29.88492 32165 ft 458 kts 334°
2026-05-08 03:10 40.26636 29.85274 32167 ft 461 kts 334°
2026-05-08 03:10 40.32578 29.82030 32156 ft 463 kts 334°
2026-05-08 03:11 40.38510 29.78785 32161 ft 462 kts 334°
2026-05-08 03:11 40.44439 29.75533 32140 ft 461 kts 334°
2026-05-08 03:12 40.50353 29.72285 32148 ft 460 kts 334°
2026-05-08 03:12 40.56218 29.69055 32129 ft 460 kts 334°
2026-05-08 03:13 40.62150 29.65782 32143 ft 459 kts 334°
2026-05-08 03:13 40.67720 29.61821 32137 ft 458 kts 324°
2026-05-08 03:14 40.72768 29.56698 32121 ft 459 kts 319°
2026-05-08 03:14 40.77744 29.51394 32131 ft 460 kts 319°
2026-05-08 03:15 40.82738 29.46106 32121 ft 460 kts 319°
2026-05-08 03:15 40.87723 29.40840 32127 ft 458 kts 319°
2026-05-08 03:16 40.92696 29.35575 32132 ft 458 kts 319°
2026-05-08 03:16 40.97659 29.30316 32127 ft 456 kts 319°
2026-05-08 03:17 41.02606 29.25059 32126 ft 455 kts 319°
2026-05-08 03:17 41.07537 29.19812 32127 ft 454 kts 319°
2026-05-08 03:18 41.12201 29.14224 32113 ft 451 kts 311°
2026-05-08 03:18 41.16078 29.07725 32106 ft 449 kts 303°
2026-05-08 03:19 41.19512 29.00800 32100 ft 450 kts 302°
2026-05-08 03:19 41.22952 28.93850 32112 ft 451 kts 303°
2026-05-08 03:20 41.26407 28.86903 32102 ft 451 kts 303°
2026-05-08 03:20 41.29867 28.79954 32106 ft 451 kts 303°
2026-05-08 03:21 41.33327 28.72985 32093 ft 451 kts 303°
2026-05-08 03:21 41.36741 28.66095 32097 ft 447 kts 303°
2026-05-08 03:22 41.40142 28.59215 32091 ft 443 kts 303°
2026-05-08 03:22 41.43529 28.52343 32091 ft 440 kts 303°
2026-05-08 03:23 41.46856 28.45586 32097 ft 438 kts 303°
2026-05-08 03:23 41.50460 28.39063 32099 ft 438 kts 310°
2026-05-08 03:24 41.54766 28.33296 32109 ft 439 kts 314°
2026-05-08 03:24 41.59172 28.27548 32103 ft 446 kts 314°
2026-05-08 03:25 41.63620 28.21698 32094 ft 448 kts 314°
2026-05-08 03:25 41.68050 28.15845 32085 ft 447 kts 314°
2026-05-08 03:26 41.72460 28.10009 32086 ft 445 kts 314°
2026-05-08 03:26 41.76852 28.04181 32085 ft 444 kts 314°
2026-05-08 03:27 41.81228 27.98365 32090 ft 443 kts 314°
2026-05-08 03:27 41.85602 27.92537 32085 ft 444 kts 314°
2026-05-08 03:28 41.89995 27.86674 32095 ft 447 kts 314°
2026-05-08 03:28 41.94415 27.80765 32101 ft 449 kts 314°
2026-05-08 03:29 41.98623 27.74551 32090 ft 450 kts 307°
2026-05-08 03:29 42.02466 27.67916 32084 ft 450 kts 307°
2026-05-08 03:30 42.08226 27.58001 32084 ft 447 kts 307°
2026-05-08 03:31 42.15848 27.44879 32078 ft 443 kts 307°
2026-05-08 03:32 42.21543 27.35056 32088 ft 444 kts 307°
2026-05-08 03:32 42.25345 27.28482 32088 ft 445 kts 307°
2026-05-08 03:33 42.29157 27.21865 32081 ft 447 kts 307°
2026-05-08 03:33 42.32966 27.15242 32086 ft 447 kts 307°
2026-05-08 03:34 42.36780 27.08599 32077 ft 447 kts 307°
2026-05-08 03:34 42.40589 27.01946 32078 ft 447 kts 307°
2026-05-08 03:35 42.44393 26.95285 32084 ft 447 kts 307°
2026-05-08 03:35 42.48195 26.88619 32080 ft 447 kts 307°
2026-05-08 03:36 42.51991 26.81944 32084 ft 447 kts 306°
2026-05-08 03:36 42.55141 26.76394 32081 ft 447 kts 306°
2026-05-08 03:37 42.58935 26.69699 32075 ft 447 kts 306°
2026-05-08 03:37 42.62726 26.62993 32072 ft 448 kts 306°
2026-05-08 03:38 42.67131 26.55180 32069 ft 448 kts 306°
2026-05-08 03:38 42.70308 26.49531 32078 ft 449 kts 306°
2026-05-08 03:39 42.74095 26.42785 32080 ft 449 kts 306°
2026-05-08 03:39 42.77888 26.36016 32078 ft 450 kts 306°
2026-05-08 03:40 42.81680 26.29231 32068 ft 450 kts 306°
2026-05-08 03:40 42.85445 26.22480 32077 ft 450 kts 306°
2026-05-08 03:41 42.89259 26.15622 32073 ft 451 kts 306°
2026-05-08 03:41 42.93048 26.08795 32064 ft 451 kts 306°
2026-05-08 03:42 42.96830 26.01964 32061 ft 451 kts 305°
2026-05-08 03:42 43.00589 25.95161 32057 ft 451 kts 305°
2026-05-08 03:43 43.04367 25.88310 32058 ft 451 kts 305°
2026-05-08 03:43 43.08140 25.81450 32050 ft 451 kts 305°
2026-05-08 03:44 43.11907 25.74585 32045 ft 452 kts 305°
2026-05-08 03:44 43.15673 25.67699 32050 ft 452 kts 305°
2026-05-08 03:45 43.19438 25.60805 32050 ft 452 kts 305°
2026-05-08 03:45 43.23202 25.53899 32060 ft 452 kts 305°
2026-05-08 03:46 43.26963 25.46976 32059 ft 453 kts 305°
2026-05-08 03:46 43.30728 25.40029 32053 ft 453 kts 305°
2026-05-08 03:47 43.34494 25.33078 32064 ft 453 kts 305°
2026-05-08 03:47 43.38249 25.26134 32047 ft 453 kts 304°
2026-05-08 03:48 43.41997 25.19166 32053 ft 453 kts 304°
2026-05-08 03:48 43.45745 25.12183 32059 ft 454 kts 304°
2026-05-08 03:49 43.49494 25.05185 32055 ft 454 kts 304°
2026-05-08 03:49 43.53244 24.98171 32048 ft 455 kts 304°
2026-05-08 03:50 43.56986 24.91151 32050 ft 455 kts 304°
2026-05-08 03:50 43.60733 24.84118 32058 ft 455 kts 304°
2026-05-08 03:51 43.64471 24.77072 32049 ft 455 kts 304°
2026-05-08 03:51 43.68179 24.70066 32045 ft 455 kts 304°
2026-05-08 03:52 43.71910 24.63006 32038 ft 455 kts 304°
2026-05-08 03:52 43.75646 24.55946 32051 ft 455 kts 305°
2026-05-08 03:53 43.79667 24.49163 32043 ft 456 kts 307°
2026-05-08 03:53 43.83785 24.42514 32036 ft 454 kts 307°
2026-05-08 03:54 43.87842 24.35787 32054 ft 455 kts 307°
2026-05-08 03:54 43.91884 24.29007 32067 ft 457 kts 307°
2026-05-08 03:55 43.95943 24.22202 32055 ft 458 kts 307°
2026-05-08 03:55 44.00021 24.15388 32052 ft 459 kts 307°
2026-05-08 03:56 44.04090 24.08569 32048 ft 459 kts 307°
2026-05-08 03:56 44.08156 24.01736 32051 ft 458 kts 306°
2026-05-08 03:57 44.12211 23.94904 32057 ft 457 kts 306°
2026-05-08 03:57 44.16251 23.88078 32050 ft 456 kts 306°
2026-05-08 03:58 44.20277 23.81262 32048 ft 455 kts 306°
2026-05-08 03:58 44.24290 23.74452 32052 ft 454 kts 306°
2026-05-08 03:59 44.28292 23.67644 32055 ft 454 kts 306°
2026-05-08 03:59 44.32286 23.60835 32066 ft 453 kts 306°
2026-05-08 04:00 44.36266 23.54031 32063 ft 452 kts 306°
2026-05-08 04:00 44.40216 23.47264 32063 ft 452 kts 306°
2026-05-08 04:01 44.44184 23.40450 32044 ft 451 kts 306°
2026-05-08 04:01 44.48144 23.33633 32047 ft 451 kts 306°
2026-05-08 04:02 44.52098 23.26817 32065 ft 451 kts 306°
2026-05-08 04:02 44.56043 23.19994 32089 ft 450 kts 306°
2026-05-08 04:03 44.59976 23.13172 32074 ft 450 kts 305°
2026-05-08 04:03 44.65866 23.02930 32057 ft 449 kts 305°
2026-05-08 04:04 44.69779 22.96103 32062 ft 448 kts 305°
2026-05-08 04:04 44.73686 22.89278 32066 ft 448 kts 305°
2026-05-08 04:05 44.77587 22.82437 32063 ft 448 kts 305°
2026-05-08 04:05 44.81485 22.75592 32067 ft 448 kts 305°
2026-05-08 04:06 44.85374 22.68748 32068 ft 448 kts 305°
2026-05-08 04:06 44.89260 22.61888 32101 ft 448 kts 304°
2026-05-08 04:07 44.93124 22.55050 32079 ft 449 kts 304°
2026-05-08 04:07 44.97012 22.48151 32075 ft 449 kts 304°
2026-05-08 04:08 45.00899 22.41241 32079 ft 449 kts 304°
2026-05-08 04:08 45.04782 22.34318 32095 ft 450 kts 304°
2026-05-08 04:09 45.08664 22.27386 32077 ft 449 kts 304°
2026-05-08 04:09 45.12527 22.20469 32069 ft 447 kts 304°
2026-05-08 04:10 45.16363 22.13585 32064 ft 445 kts 304°
2026-05-08 04:10 45.20186 22.06705 32071 ft 444 kts 304°
2026-05-08 04:11 45.24052 21.99729 32054 ft 444 kts 304°
2026-05-08 04:11 45.27867 21.92828 32055 ft 445 kts 304°
2026-05-08 04:12 45.31687 21.85905 32055 ft 446 kts 304°
2026-05-08 04:12 45.35485 21.78999 32065 ft 447 kts 304°
2026-05-08 04:13 45.39305 21.72036 32059 ft 447 kts 303°
2026-05-08 04:13 45.43127 21.65058 32055 ft 447 kts 303°
2026-05-08 04:14 45.46937 21.58086 32055 ft 445 kts 303°
2026-05-08 04:14 45.50735 21.51116 32051 ft 445 kts 303°
2026-05-08 04:15 45.54522 21.44150 32085 ft 444 kts 303°
2026-05-08 04:15 45.58309 21.37167 32067 ft 445 kts 303°
2026-05-08 04:16 45.62094 21.30164 32051 ft 446 kts 303°
2026-05-08 04:16 45.65883 21.23143 32053 ft 446 kts 303°
2026-05-08 04:17 45.69309 21.16775 32063 ft 447 kts 303°
2026-05-08 04:17 45.73095 21.09724 32048 ft 447 kts 303°
2026-05-08 04:18 45.76875 21.02670 32049 ft 446 kts 303°
2026-05-08 04:18 45.80645 20.95612 32051 ft 446 kts 303°
2026-05-08 04:19 45.84381 20.88602 32069 ft 445 kts 302°
2026-05-08 04:19 45.88157 20.81504 32065 ft 444 kts 302°
2026-05-08 04:20 45.91875 20.74493 32053 ft 445 kts 302°
2026-05-08 04:20 45.95618 20.67411 32060 ft 445 kts 302°
2026-05-08 04:21 45.99364 20.60307 32085 ft 446 kts 302°
2026-05-08 04:21 46.03119 20.53175 32064 ft 447 kts 302°
2026-05-08 04:22 46.06869 20.46036 32053 ft 447 kts 302°
2026-05-08 04:22 46.10614 20.38882 32055 ft 447 kts 302°
2026-05-08 04:23 46.14353 20.31721 32056 ft 447 kts 302°
2026-05-08 04:23 46.18090 20.24549 32054 ft 448 kts 302°
2026-05-08 04:24 46.21836 20.17339 32047 ft 451 kts 302°
2026-05-08 04:24 46.25610 20.10053 32052 ft 455 kts 302°
2026-05-08 04:25 46.29407 20.02707 32055 ft 458 kts 302°
2026-05-08 04:25 46.33227 19.95298 32057 ft 460 kts 302°
2026-05-08 04:26 46.37050 19.87863 32045 ft 460 kts 302°
2026-05-08 04:26 46.40739 19.80338 32055 ft 455 kts 296°
2026-05-08 04:27 46.43894 19.72439 32053 ft 452 kts 295°
2026-05-08 04:27 46.47024 19.64542 32073 ft 451 kts 295°
2026-05-08 04:28 46.50133 19.56726 32066 ft 450 kts 296°
2026-05-08 04:28 46.53260 19.48868 32062 ft 449 kts 296°
2026-05-08 04:29 46.56378 19.41017 32074 ft 449 kts 295°
2026-05-08 04:29 46.59487 19.33167 32097 ft 451 kts 295°
2026-05-08 04:30 46.62613 19.25249 32070 ft 452 kts 295°
2026-05-08 04:30 46.65743 19.17300 32065 ft 453 kts 295°
2026-05-08 04:31 46.68867 19.09337 32060 ft 452 kts 295°
2026-05-08 04:31 46.71982 19.01384 32057 ft 452 kts 295°
2026-05-08 04:32 46.75089 18.93424 32070 ft 451 kts 295°
2026-05-08 04:32 46.78180 18.85484 32063 ft 449 kts 295°
2026-05-08 04:33 46.81254 18.77558 32061 ft 448 kts 295°
2026-05-08 04:33 46.84319 18.69633 32063 ft 448 kts 295°
2026-05-08 04:34 46.87373 18.61716 32058 ft 447 kts 295°
2026-05-08 04:34 46.90421 18.53795 32053 ft 446 kts 295°
2026-05-08 04:35 46.93455 18.45883 32074 ft 445 kts 295°
2026-05-08 04:35 46.96484 18.37960 32062 ft 447 kts 295°
2026-05-08 04:36 46.99516 18.30005 32083 ft 448 kts 295°
2026-05-08 04:36 47.02546 18.22034 32060 ft 448 kts 295°
2026-05-08 04:37 47.05574 18.14046 32054 ft 448 kts 295°
2026-05-08 04:37 47.08590 18.06064 32061 ft 447 kts 295°
2026-05-08 04:38 47.11593 17.98092 32064 ft 446 kts 295°
2026-05-08 04:38 47.14590 17.90115 32066 ft 446 kts 295°
2026-05-08 04:39 47.17573 17.82148 32068 ft 445 kts 295°
2026-05-08 04:39 47.20550 17.74174 32072 ft 445 kts 295°
2026-05-08 04:40 47.23522 17.66195 32075 ft 445 kts 295°
2026-05-08 04:40 47.26488 17.58198 32084 ft 445 kts 295°
2026-05-08 04:41 47.29452 17.50189 32075 ft 445 kts 295°
2026-05-08 04:41 47.32411 17.42170 32083 ft 445 kts 295°
2026-05-08 04:42 47.35366 17.34142 32076 ft 445 kts 295°
2026-05-08 04:42 47.38311 17.26106 32086 ft 445 kts 295°
2026-05-08 04:43 47.41248 17.18068 32076 ft 445 kts 295°
2026-05-08 04:43 47.44185 17.10019 32069 ft 445 kts 295°